TimeEST,TemperatureF,Dew PointF,Humidity,Sea Level PressureIn,VisibilityMPH,Wind Direction,Wind SpeedMPH,Gust SpeedMPH,PrecipitationIn,Events,Conditions,WindDirDegrees,DateUTC
12:15 AM,35.6,33.8,93,30.16,10.0,Calm,Calm,-,N/A,Rain,Rain,0,2013-12-07 05:15:00
12:35 AM,35.6,33.8,93,30.15,10.0,Calm,Calm,-,N/A,,Overcast,0,2013-12-07 05:35:00
12:55 AM,35.6,33.8,93,30.18,10.0,NNW,3.5,-,N/A,,Overcast,330,2013-12-07 05:55:00
1:15 AM,35.6,33.8,93,30.18,10.0,NNW,3.5,-,N/A,,Overcast,340,2013-12-07 06:15:00
1:35 AM,35.6,33.8,93,30.19,10.0,NNW,5.8,-,N/A,,Overcast,340,2013-12-07 06:35:00
1:55 AM,35.6,33.8,93,30.21,10.0,NNW,4.6,-,N/A,,Overcast,340,2013-12-07 06:55:00
2:15 AM,35.6,33.8,93,30.22,10.0,North,6.9,-,N/A,,Overcast,350,2013-12-07 07:15:00
2:35 AM,35.6,33.8,93,30.22,10.0,NNW,5.8,-,N/A,,Overcast,340,2013-12-07 07:35:00
2:55 AM,35.6,32.0,87,30.23,10.0,NNW,4.6,-,N/A,,Overcast,330,2013-12-07 07:55:00
3:15 AM,35.6,32.0,87,30.23,10.0,NNW,3.5,-,N/A,,Overcast,340,2013-12-07 08:15:00
3:35 AM,35.6,32.0,87,30.23,10.0,Calm,Calm,-,N/A,,Overcast,0,2013-12-07 08:35:00
3:55 AM,33.8,32.0,93,30.24,10.0,NNW,4.6,-,N/A,,Overcast,330,2013-12-07 08:55:00
4:15 AM,35.6,32.0,87,30.24,10.0,NNW,8.1,-,N/A,,Overcast,330,2013-12-07 09:15:00
4:35 AM,35.6,32.0,87,30.25,10.0,NNW,4.6,-,N/A,,Overcast,330,2013-12-07 09:35:00
4:55 AM,35.6,32.0,87,30.25,10.0,NNW,4.6,-,N/A,,Overcast,330,2013-12-07 09:55:00
5:15 AM,33.8,32.0,93,30.27,10.0,NW,4.6,-,N/A,,Mostly Cloudy,320,2013-12-07 10:15:00
5:35 AM,33.8,32.0,93,30.28,10.0,NNW,6.9,-,N/A,,Overcast,330,2013-12-07 10:35:00
5:55 AM,33.8,32.0,93,30.28,10.0,NNW,4.6,-,N/A,,Overcast,340,2013-12-07 10:55:00
6:15 AM,33.8,32.0,93,30.30,10.0,North,3.5,-,N/A,,Overcast,350,2013-12-07 11:15:00
6:35 AM,33.8,32.0,93,30.30,10.0,Calm,Calm,-,N/A,,Overcast,0,2013-12-07 11:35:00
6:55 AM,33.8,32.0,93,30.31,10.0,NNW,5.8,-,N/A,,Overcast,330,2013-12-07 11:55:00
7:15 AM,33.8,32.0,93,30.32,10.0,NNW,5.8,-,N/A,,Mostly Cloudy,330,2013-12-07 12:15:00
7:35 AM,33.8,32.0,93,30.33,10.0,NW,6.9,-,N/A,,Scattered Clouds,320,2013-12-07 12:35:00
7:55 AM,33.8,30.2,87,30.34,10.0,NW,9.2,-,N/A,,Mostly Cloudy,320,2013-12-07 12:55:00
8:15 AM,33.8,30.2,87,30.35,10.0,NNW,10.4,-,N/A,,Mostly Cloudy,330,2013-12-07 13:15:00
8:35 AM,35.6,30.2,81,30.36,10.0,NW,11.5,16.1,N/A,,Overcast,320,2013-12-07 13:35:00
8:55 AM,35.6,30.2,81,30.36,10.0,NNW,6.9,16.1,N/A,,Scattered Clouds,330,2013-12-07 13:55:00
9:15 AM,35.6,30.2,81,30.37,10.0,NW,10.4,-,N/A,,Clear,320,2013-12-07 14:15:00
9:35 AM,35.6,30.2,81,30.38,10.0,NW,11.5,18.4,N/A,,Clear,320,2013-12-07 14:35:00
9:55 AM,35.6,30.2,81,30.40,10.0,NW,13.8,20.7,N/A,,Scattered Clouds,320,2013-12-07 14:55:00
10:15 AM,37.4,30.2,75,30.41,10.0,NNW,11.5,17.3,N/A,,Scattered Clouds,330,2013-12-07 15:15:00
10:35 AM,35.6,28.4,75,30.41,10.0,NNW,6.9,17.3,N/A,,Mostly Cloudy,330,2013-12-07 15:35:00
10:55 AM,35.6,28.4,75,30.41,10.0,NNW,10.4,19.6,N/A,,Scattered Clouds,330,2013-12-07 15:55:00
11:15 AM,35.6,28.4,75,30.41,10.0,NNW,11.5,17.3,N/A,,Scattered Clouds,330,2013-12-07 16:15:00
11:35 AM,35.6,28.4,75,30.41,10.0,NNW,6.9,16.1,N/A,,Scattered Clouds,330,2013-12-07 16:35:00
11:55 AM,37.4,28.4,70,30.41,10.0,NW,11.5,16.1,N/A,,Clear,320,2013-12-07 16:55:00
12:15 PM,37.4,28.4,70,30.40,10.0,NW,11.5,-,N/A,,Scattered Clouds,310,2013-12-07 17:15:00
12:35 PM,37.4,28.4,70,30.40,10.0,NNW,10.4,15.0,N/A,,Mostly Cloudy,330,2013-12-07 17:35:00
12:55 PM,37.4,28.4,70,30.40,10.0,NW,12.7,19.6,N/A,,Mostly Cloudy,310,2013-12-07 17:55:00
1:15 PM,37.4,28.4,70,30.40,10.0,NNW,8.1,19.6,N/A,,Mostly Cloudy,340,2013-12-07 18:15:00
1:35 PM,35.6,26.6,70,30.40,10.0,NW,18.4,21.9,N/A,,Overcast,310,2013-12-07 18:35:00
1:55 PM,35.6,26.6,70,30.41,10.0,WNW,15.0,20.7,N/A,,Overcast,300,2013-12-07 18:55:00
2:15 PM,37.4,26.6,65,30.40,10.0,WNW,18.4,23.0,N/A,,Overcast,300,2013-12-07 19:15:00
2:35 PM,35.6,26.6,70,30.41,10.0,NNW,9.2,20.7,N/A,,Mostly Cloudy,330,2013-12-07 19:35:00
2:55 PM,35.6,26.6,70,30.41,10.0,NNW,16.1,21.9,N/A,,Mostly Cloudy,330,2013-12-07 19:55:00
3:15 PM,35.6,26.6,70,30.41,10.0,NW,13.8,23.0,N/A,,Scattered Clouds,320,2013-12-07 20:15:00
3:35 PM,35.6,26.6,70,30.42,10.0,NW,12.7,-,N/A,,Clear,320,2013-12-07 20:35:00
3:55 PM,35.6,26.6,70,30.43,10.0,NW,11.5,-,N/A,,Clear,310,2013-12-07 20:55:00
4:15 PM,35.6,26.6,70,30.43,10.0,NW,10.4,-,N/A,,Clear,310,2013-12-07 21:15:00
4:35 PM,33.8,26.6,75,30.43,10.0,NW,6.9,-,N/A,,Scattered Clouds,320,2013-12-07 21:35:00
4:55 PM,33.8,24.8,70,30.44,10.0,WNW,8.1,-,N/A,,Scattered Clouds,290,2013-12-07 21:55:00
5:15 PM,33.8,24.8,70,30.45,10.0,NW,8.1,-,N/A,,Scattered Clouds,310,2013-12-07 22:15:00
5:35 PM,33.8,23.0,65,30.46,10.0,NW,8.1,-,N/A,,Clear,320,2013-12-07 22:35:00
5:55 PM,32.0,23.0,69,30.46,10.0,NW,5.8,-,N/A,,Clear,320,2013-12-07 22:55:00
6:15 PM,32.0,23.0,69,30.48,10.0,NNW,6.9,-,N/A,,Clear,330,2013-12-07 23:15:00
6:35 PM,32.0,21.2,64,30.49,10.0,NNW,9.2,-,N/A,,Clear,330,2013-12-07 23:35:00
6:55 PM,32.0,21.2,64,30.50,10.0,NNW,5.8,-,N/A,,Clear,330,2013-12-07 23:55:00
7:15 PM,32.0,21.2,64,30.50,10.0,North,8.1,-,N/A,,Clear,350,2013-12-08 00:15:00
7:35 PM,32.0,21.2,64,30.51,10.0,NW,6.9,-,N/A,,Clear,320,2013-12-08 00:35:00
7:55 PM,32.0,21.2,64,30.51,10.0,NW,9.2,-,N/A,,Clear,320,2013-12-08 00:55:00
8:15 PM,32.0,21.2,64,30.50,10.0,NW,12.7,-,N/A,,Clear,320,2013-12-08 01:15:00
8:35 PM,32.0,21.2,64,30.51,10.0,NNW,3.5,-,N/A,,Clear,330,2013-12-08 01:35:00
8:55 PM,32.0,21.2,64,30.52,10.0,NW,3.5,-,N/A,,Clear,310,2013-12-08 01:55:00
9:15 PM,32.0,21.2,64,30.52,10.0,Calm,Calm,-,N/A,,Clear,0,2013-12-08 02:15:00
9:35 PM,30.2,21.2,69,30.53,10.0,NW,3.5,-,N/A,,Clear,310,2013-12-08 02:35:00
9:55 PM,30.2,21.2,69,30.52,10.0,NNW,6.9,-,N/A,,Clear,330,2013-12-08 02:55:00
10:15 PM,30.2,21.2,69,30.51,10.0,NNW,4.6,-,N/A,,Clear,330,2013-12-08 03:15:00
10:35 PM,30.2,19.4,64,30.52,10.0,NNW,4.6,-,N/A,,Clear,330,2013-12-08 03:35:00
10:55 PM,30.2,19.4,64,30.52,10.0,Calm,Calm,-,N/A,,Clear,0,2013-12-08 03:55:00
11:15 PM,30.2,19.4,64,30.53,10.0,Calm,Calm,-,N/A,,Clear,0,2013-12-08 04:15:00
11:35 PM,28.4,19.4,69,30.53,10.0,Calm,Calm,-,N/A,,Clear,0,2013-12-08 04:35:00
11:55 PM,28.4,19.4,69,30.54,10.0,Calm,Calm,-,N/A,,Clear,0,2013-12-08 04:55:00